Tracking 22780 objects as of 11-Apr-2021
HD Live streaming from Space Station
objects crossing your sky now

BREEZE-M DEB (TANK)

Track BREEZE-M DEB (TANK) now!
10-day predictions


NORAD ID: 28926
Int'l Code: 2005-052C
Perigee: 282.7 km
Apogee: 14,508.8 km
Inclination: 49.5 °
Period: 267.9 minutes
Semi major axis: 13766 km
RCS: 5.3594 m2 (large)
Launch date: December 29, 2005
Source: Commonwealth of Independent States (former USSR) (CIS)
Launch site: TYURATAM MISSILE AND SPACE COMPLEX (TTMTR)

Note: This is SATELLITE DEBRIS
aabbcc
Your satellite tracking list
Your tracking list is empty




NASA's NSSDC Master Catalog

Two Line Element Set (TLE):
1 28926U 05052C   21100.37668518  .00002334  00000-0  26724-3 0  9993
2 28926  49.5428 105.3846 5166864  99.1741 320.2803  5.37472531291833
Source of the keplerian elements: AFSPC